San Luis Obispo, CA

5:12 PM PDT on April 27, 2017 (GMT -0700)
San Luis Obispo County-McChesney

Weather History for KSBP - September, 2013

Change the Weather History Date:

Monday, September 23, 2013

  Actual Average Record
Temperature  
Mean Temperature 77 °F -  
Max Temperature 93 °F 79 °F 104 °F (1949)
Min Temperature 59 °F 52 °F 41 °F (1962)
Cooling Degree Days 12    
Growing Degree Days 27 (Base 50)    
Moisture  
Dew Point 47 °F    
Average Humidity 43    
Maximum Humidity 67    
Minimum Humidity 19    
Precipitation  
Precipitation 0.00 in - - ()
Sea Level Pressure  
Sea Level Pressure 29.88 in    
Wind  
Wind Speed 8 mph (NW)    
Max Wind Speed 22 mph    
Max Gust Speed 101 mph    
Visibility 10 miles    
Events      
Averages and records for this station are not official NWS values.
T = Trace of Precipitation, MM = Missing Value Source: NWS Daily Summary

Daily Weather History Graph

Daily Weather History Graph

Search for Another Location

Airport or City:

Trip Planner

Search our weather history database for the weather conditions in past years. The results will help you decide how hot, cold, wet, or windy it might be!

Date:

Astronomy

Sep. 23, 2013 Rise Set
Actual Time 6:51 AM PDT 6:57 PM PDT
Civil Twilight 6:26 AM PDT 7:22 PM PDT
Nautical Twilight 5:56 AM PDT 7:52 PM PDT
Astronomical Twilight 5:26 AM PDT 8:22 PM PDT
Moon 9:44 PM PDT (9/23) 11:05 AM PDT (9/23)
Length of Visible Light 12h 56m
Length of Day
12h 05m
Waning Gibbous, 80% of the Moon is Illuminated
Sep 23
Waning Gibbous
Sep 26
Last Quarter
Oct 4
New
Oct 11
First Quarter
Oct 18
Full

Hourly Weather History & Observations

Time (PDT) Temp. Dew Point Humidity Pressure Visibility Wind Dir Wind Speed Gust Speed Precip Events Conditions
12:56 AM 64.9 °F 48.0 °F 54% 29.93 in 10.0 mi NW 4.6 mph - N/A   Clear
1:56 AM 64.9 °F 48.0 °F 54% 29.92 in 10.0 mi Variable 4.6 mph - N/A   Clear
2:56 AM 64.9 °F 48.0 °F 54% 29.91 in 10.0 mi NNW 10.4 mph - N/A   Clear
3:56 AM 66.0 °F 46.9 °F 50% 29.89 in 10.0 mi WNW 5.8 mph - N/A   Clear
4:56 AM 69.1 °F 46.9 °F 45% 29.89 in 10.0 mi Calm Calm - N/A   Clear
5:56 AM 68.0 °F 48.0 °F 49% 29.90 in 10.0 mi Variable 6.9 mph - N/A   Clear
6:56 AM 69.1 °F 46.9 °F 45% 29.89 in 10.0 mi East 11.5 mph - N/A   Clear
7:56 AM 69.1 °F 48.0 °F 47% 29.90 in 10.0 mi SW 9.2 mph - N/A   Clear
8:56 AM 73.0 °F 46.0 °F 38% 29.91 in 10.0 mi WSW 9.2 mph - N/A   Clear
9:56 AM 77.0 °F 46.0 °F 33% 29.91 in 10.0 mi SW 9.2 mph - N/A   Clear
10:56 AM 82.0 °F 44.1 °F 26% 29.90 in 10.0 mi Calm Calm - N/A   Clear
11:56 AM 86.0 °F 43.0 °F 22% 29.88 in 10.0 mi Variable 3.5 mph - N/A   Clear
12:56 PM 91.0 °F 45.0 °F 20% 29.86 in 10.0 mi NNE 10.4 mph - N/A   Clear
1:56 PM 91.9 °F 45.0 °F 20% 29.85 in 10.0 mi North 13.8 mph 19.6 mph N/A   Clear
2:56 PM 93.0 °F 45.0 °F 19% 29.84 in 10.0 mi North 13.8 mph - N/A   Clear
3:56 PM 86.0 °F 46.0 °F 25% 29.83 in 10.0 mi NW 21.9 mph - N/A   Clear
4:56 PM 81.0 °F 46.0 °F 29% 29.83 in 10.0 mi NW 21.9 mph - N/A   Clear
5:56 PM 79.0 °F 46.9 °F 32% 29.85 in 10.0 mi NW 15.0 mph - N/A   Clear
6:56 PM 73.0 °F 48.0 °F 41% 29.85 in 10.0 mi NW 12.7 mph - N/A   Clear
7:56 PM 68.0 °F 48.9 °F 50% 29.87 in 10.0 mi WSW 4.6 mph - N/A   Clear
8:56 PM 64.9 °F 48.9 °F 56% 29.89 in 10.0 mi Calm Calm - N/A   Clear
9:44 PM 62.6 °F 50.0 °F 63% 29.91 in 10.0 mi WNW 19.6 mph 101.3 mph N/A   Squalls
9:56 PM 62.1 °F 51.1 °F 67% 29.90 in 10.0 mi Calm Calm - N/A   Clear
10:56 PM 61.0 °F 50.0 °F 67% 29.91 in 10.0 mi North - - N/A   Clear
11:56 PM 59.0 °F 48.0 °F 67% 29.89 in 10.0 mi Calm Calm - N/A   Clear